| time (UTC) | temp F | wind direction | speed knots | gust knots | rain 1hr in | rain 24hr in | rain mn in | humidity % | barometer mb |
| 20260906122018 | 80 | 330 | 2.6 | 4.3 | 0.00 | 0.00 | 0.00 | 82 | 1013.0 |
| 20260906121030 | 79 | 5 | 1.7 | 2.6 | 0.00 | 0.00 | 0.00 | 84 | 1012.8 |
| 20260906120030 | 78 | 318 | 0.9 | 1.7 | 0.00 | 0.00 | 0.00 | 86 | 1012.6 |
| 20260906115030 | 78 | 12 | 0.9 | 1.7 | 0.00 | 0.00 | 0.00 | 88 | 1012.5 |
| 20260906114031 | 79 | 318 | 0.9 | 2.6 | 0.00 | 0.00 | 0.00 | 85 | 1012.3 |
| 20260906113031 | 78 | 240 | 1.7 | 1.7 | 0.00 | 0.00 | 0.00 | 87 | 1012.1 |
| 20260906112030 | 79 | 261 | 1.7 | 2.6 | 0.00 | 0.00 | 0.00 | 85 | 1012.0 |
| 20260906111016 | 78 | 300 | 0.9 | 1.7 | 0.00 | 0.00 | 0.00 | 86 | 1011.9 |
| 20260906110016 | 78 | 270 | 1.7 | 3.5 | 0.00 | 0.00 | 0.00 | 88 | 1011.7 |
| 20260906105016 | 78 | 268 | 2.6 | 3.5 | 0.00 | 0.00 | 0.00 | 87 | 1011.7 |
| 20260906104016 | 78 | 224 | 1.7 | 2.6 | 0.00 | 0.00 | 0.00 | 89 | 1011.8 |
| 20260906103017 | 78 | 253 | 2.6 | 4.3 | 0.00 | 0.00 | 0.00 | 88 | 1011.5 |
| 20260906102018 | 79 | 244 | 1.7 | 3.5 | 0.00 | 0.00 | 0.00 | 86 | 1011.4 |
| 20260906101017 | 78 | 329 | 2.6 | 5.2 | 0.00 | 0.00 | 0.00 | 87 | 1011.4 |
| 20260906100018 | 78 | 214 | 0.9 | 1.7 | 0.00 | 0.00 | 0.00 | 87 | 1011.4 |
| 20260906095018 | 78 | 262 | 1.7 | 3.5 | 0.00 | 0.00 | 0.00 | 88 | 1011.3 |
| 20260906094020 | 78 | 219 | 2.6 | 4.3 | 0.00 | 0.00 | 0.00 | 90 | 1011.3 |
| 20260906093039 | 78 | 218 | 1.7 | 2.6 | 0.00 | 0.00 | 0.00 | 88 | 1011.3 |
| 20260906092018 | 79 | 209 | 0.0 | 0.9 | 0.00 | 0.00 | 0.00 | 87 | 1011.3 |
| 20260906091017 | 80 | 84 | 0.0 | 0.9 | 0.00 | 0.00 | 0.00 | 85 | 1011.2 |
| 20260906090018 | 80 | 359 | 0.9 | 2.6 | 0.00 | 0.00 | 0.00 | 83 | 1011.2 |
| 20260906085039 | 81 | 34 | 0.9 | 2.6 | 0.00 | 0.00 | 0.00 | 82 | 1011.2 |
| 20260906084018 | 82 | 351 | 0.9 | 2.6 | 0.00 | 0.00 | 0.00 | 80 | 1011.2 |
| 20260906083016 | 81 | 323 | 0.9 | 4.3 | 0.00 | 0.00 | 0.00 | 80 | 1011.2 |
| 20260906082017 | 81 | 301 | 1.7 | 3.5 | 0.00 | 0.00 | 0.00 | 79 | 1011.2 |
| 20260906081016 | 81 | 302 | 0.9 | 2.6 | 0.00 | 0.00 | 0.00 | 83 | 1011.1 |
| 20260906080016 | 81 | 31 | 0.9 | 5.2 | 0.00 | 0.00 | 0.00 | 83 | 1011.1 |
| 20260906075016 | 81 | 294 | 0.9 | 2.6 | 0.00 | 0.00 | 0.00 | 80 | 1011.0 |
| 20260906074037 | 80 | 252 | 0.9 | 3.5 | 0.00 | 0.00 | 0.00 | 83 | 1011.1 |
| 20260906073017 | 81 | 245 | 0.9 | 2.6 | 0.00 | 0.00 | 0.00 | 83 | 1011.1 |
| 20260906072017 | 81 | 177 | 0.0 | 1.7 | 0.00 | 0.00 | 0.00 | 82 | 1011.1 |
| 20260906071017 | 80 | 343 | 1.7 | 4.3 | 0.00 | 0.00 | 0.00 | 85 | 1011.2 |
| 20260906070017 | 79 | 1 | 0.9 | 3.5 | 0.00 | 0.00 | 0.00 | 87 | 1011.2 |
| 20260906065018 | 80 | 108 | 1.7 | 6.1 | 0.00 | 0.00 | 0.00 | 87 | 1011.3 |
| 20260906064017 | 81 | 71 | 0.9 | 2.6 | 0.00 | 0.00 | 0.00 | 84 | 1011.2 |
| 20260906063017 | 82 | 16 | 0.0 | 0.9 | 0.00 | 0.00 | 0.00 | 82 | 1011.2 |
| 20260906062017 | 81 | 280 | 0.0 | 0.9 | 0.00 | 0.00 | 0.00 | 83 | 1011.2 |
| 20260906061017 | 81 | 93 | 0.0 | 0.9 | 0.00 | 0.00 | 0.00 | 84 | 1011.3 |
| 20260906060019 | 82 | 117 | 0.0 | 1.7 | 0.00 | 0.00 | 0.00 | 82 | 1011.4 |
| 20260906055017 | 84 | 62 | 0.0 | 0.9 | 0.00 | 0.00 | 0.00 | 78 | 1011.4 |
| 20260906054018 | 85 | 267 | 0.9 | 2.6 | 0.00 | 0.00 | 0.00 | 72 | 1011.3 |
| 20260906053018 | 84 | 295 | 0.9 | 1.7 | 0.00 | 0.00 | 0.00 | 71 | 1011.3 |
| 20260906052018 | 84 | 268 | 2.6 | 3.5 | 0.00 | 0.00 | 0.00 | 74 | 1011.5 |
| 20260906051018 | 84 | 243 | 1.7 | 3.5 | 0.00 | 0.00 | 0.00 | 75 | 1011.6 |
| 20260906050019 | 84 | 267 | 0.9 | 1.7 | 0.00 | 0.00 | 0.00 | 75 | 1011.6 |
| 20260906045016 | 84 | 252 | 1.7 | 2.6 | 0.00 | 0.00 | 0.00 | 76 | 1011.6 |
| 20260906044038 | 83 | 271 | 1.7 | 4.3 | 0.00 | 0.00 | 0.00 | 78 | 1011.7 |
| 20260906043016 | 83 | 233 | 0.9 | 2.6 | 0.00 | 0.00 | 0.00 | 79 | 1011.8 |
| 20260906042016 | 83 | 244 | 0.9 | 1.7 | 0.00 | 0.00 | 0.00 | 79 | 1011.8 |
| 20260906041016 | 83 | 182 | 0.0 | 0.9 | 0.00 | 0.00 | 0.00 | 78 | 1011.8 |
| 20260906040016 | 83 | 237 | 0.0 | 0.9 | 0.00 | 0.00 | 0.00 | 79 | 1011.8 |
| 20260906035018 | 84 | 204 | 0.0 | 0.9 | 0.00 | 0.00 | 0.00 | 77 | 1011.7 |
| 20260906034017 | 86 | 200 | 0.0 | 1.7 | 0.00 | 0.00 | 0.00 | 76 | 1011.6 |
| 20260906033017 | 88 | 278 | 0.9 | 1.7 | 0.00 | 0.00 | 0.00 | 63 | 1011.4 |
| 20260906032017 | 88 | 319 | 1.7 | 5.2 | 0.00 | 0.00 | 0.00 | 60 | 1011.2 |
| 20260906031038 | 88 | 290 | 0.9 | 3.5 | 0.00 | 0.00 | 0.00 | 62 | 1011.0 |
| 20260906030039 | 88 | 286 | 0.9 | 2.6 | 0.00 | 0.00 | 0.00 | 65 | 1010.9 |
| 20260906025017 | 88 | 268 | 0.9 | 2.6 | 0.00 | 0.00 | 0.00 | 65 | 1011.0 |
| 20260906024038 | 88 | 295 | 1.7 | 3.5 | 0.00 | 0.00 | 0.00 | 63 | 1010.9 |
| 20260906023018 | 87 | 278 | 1.7 | 3.5 | 0.00 | 0.00 | 0.00 | 69 | 1011.0 |
| 20260906022018 | 87 | 254 | 1.7 | 2.6 | 0.00 | 0.00 | 0.00 | 71 | 1010.9 |
| 20260906021019 | 87 | 247 | 1.7 | 2.6 | 0.00 | 0.00 | 0.00 | 70 | 1010.8 |
| 20260906020018 | 87 | 221 | 1.7 | 2.6 | 0.00 | 0.00 | 0.00 | 72 | 1010.7 |
| 20260906015038 | 89 | 217 | 0.0 | 1.7 | 0.00 | 0.00 | 0.00 | 68 | 1010.7 |
| 20260906014039 | 89 | 251 | 0.0 | 1.7 | 0.00 | 0.00 | 0.00 | 65 | 1010.6 |
| 20260906013019 | 90 | 246 | 0.9 | 2.6 | 0.00 | 0.00 | 0.00 | 61 | 1010.6 |
| 20260906012020 | 90 | 240 | 0.9 | 2.6 | 0.00 | 0.00 | 0.00 | 60 | 1010.6 |
| 20260906011016 | 90 | 255 | 1.7 | 3.5 | 0.00 | 0.00 | 0.00 | 61 | 1010.6 |
| 20260906010016 | 89 | 235 | 1.7 | 2.6 | 0.00 | 0.00 | 0.00 | 63 | 1010.5 |
| 20260906005017 | 89 | 221 | 0.9 | 2.6 | 0.00 | 0.00 | 0.00 | 64 | 1010.4 |
| 20260906004017 | 90 | 214 | 0.0 | 1.7 | 0.00 | 0.00 | 0.00 | 65 | 1010.5 |
| 20260906003016 | 92 | 102 | 0.0 | 0.9 | 0.00 | 0.00 | 0.00 | 62 | 1010.4 |
| 20260906002022 | 94 | 313 | 0.0 | 1.7 | 0.00 | 0.00 | 0.00 | 54 | 1010.4 |
| 20260906001017 | 95 | 249 | 1.7 | 3.5 | 0.00 | 0.00 | 0.00 | 51 | 1010.4 |
| 20260906000038 | 95 | 259 | 1.7 | 3.5 | 0.00 | 0.00 | 0.00 | 50 | 1010.5 |
| 20260905235018 | 95 | 243 | 0.0 | 1.7 | 0.00 | 0.00 | 0.00 | 49 | 1010.5 |
| 20260905234039 | 96 | 47 | 0.0 | 1.7 | 0.00 | 0.00 | 0.00 | 48 | 1010.5 |
| 20260905233017 | 97 | 40 | 0.9 | 2.6 | 0.00 | 0.00 | 0.00 | 46 | 1010.4 |
| 20260905232038 | 97 | 353 | 2.6 | 4.3 | 0.00 | 0.00 | 0.00 | 44 | 1010.5 |
| 20260905231017 | 97 | 24 | 1.7 | 3.5 | 0.00 | 0.00 | 0.00 | 45 | 1010.5 |
| 20260905230018 | 98 | 320 | 1.7 | 4.3 | 0.00 | 0.00 | 0.00 | 44 | 1010.6 |
| 20260905225038 | 98 | 304 | 2.6 | 5.2 | 0.00 | 0.00 | 0.00 | 42 | 1010.5 |
| 20260905224038 | 98 | 322 | 2.6 | 5.2 | 0.00 | 0.00 | 0.00 | 42 | 1010.4 |
| 20260905223018 | 98 | 306 | 2.6 | 5.2 | 0.00 | 0.00 | 0.00 | 42 | 1010.4 |
| 20260905222038 | 99 | 307 | 2.6 | 4.3 | 0.00 | 0.00 | 0.00 | 41 | 1010.5 |
| 20260905221018 | 98 | 322 | 2.6 | 4.3 | 0.00 | 0.00 | 0.00 | 41 | 1010.5 |
| 20260905220019 | 99 | 305 | 2.6 | 4.3 | 0.00 | 0.00 | 0.00 | 42 | 1010.5 |
| 20260905215018 | 99 | 294 | 1.7 | 4.3 | 0.00 | 0.00 | 0.00 | 41 | 1010.6 |
| 20260905214019 | 99 | 276 | 1.7 | 4.3 | 0.00 | 0.00 | 0.00 | 39 | 1010.7 |
| 20260905213016 | 99 | 45 | 0.9 | 3.5 | 0.00 | 0.00 | 0.00 | 40 | 1010.7 |
| 20260905212036 | 100 | 279 | 1.7 | 3.5 | 0.00 | 0.00 | 0.00 | 39 | 1010.7 |
| 20260905211016 | 101 | 243 | 0.9 | 4.3 | 0.00 | 0.00 | 0.00 | 39 | 1010.7 |
| 20260905210016 | 101 | 232 | 1.7 | 2.6 | 0.00 | 0.00 | 0.00 | 39 | 1010.8 |
| 20260905205016 | 99 | 216 | 1.7 | 4.3 | 0.00 | 0.00 | 0.00 | 40 | 1010.8 |
| 20260905204017 | 98 | 215 | 1.7 | 4.3 | 0.00 | 0.00 | 0.00 | 43 | 1010.9 |
| 20260905203017 | 98 | 173 | 1.7 | 3.5 | 0.00 | 0.00 | 0.00 | 43 | 1011.1 |
| 20260905202036 | 98 | 206 | 2.6 | 5.2 | 0.00 | 0.00 | 0.00 | 44 | 1011.3 |
| 20260905201018 | 97 | 195 | 1.7 | 4.3 | 0.00 | 0.00 | 0.00 | 44 | 1011.4 |
| 20260905200017 | 97 | 139 | 1.7 | 4.3 | 0.00 | 0.01 | 0.00 | 45 | 1011.5 |
| 20260905195018 | 99 | 182 | 1.7 | 3.5 | 0.00 | 0.02 | 0.00 | 43 | 1011.7 |
| 20260905194040 | 99 | 208 | 1.7 | 5.2 | 0.00 | 0.03 | 0.00 | 43 | 1011.8 |
| 20260905193017 | 99 | 219 | 3.5 | 6.1 | 0.00 | 0.03 | 0.00 | 44 | 1012.0 |
| 20260905192058 | 99 | 224 | 4.3 | 7.0 | 0.00 | 0.03 | 0.00 | 42 | 1012.2 |
| 20260905191038 | 99 | 216 | 4.3 | 7.0 | 0.00 | 0.16 | 0.00 | 41 | 1012.3 |
| 20260905190018 | 100 | 239 | 2.6 | 7.0 | 0.00 | 0.75 | 0.00 | 39 | 1012.3 |
| 20260905185018 | 99 | 199 | 1.7 | 4.3 | 0.00 | 0.84 | 0.00 | 41 | 1012.4 |
| 20260905184018 | 98 | 264 | 1.7 | 3.5 | 0.00 | 0.84 | 0.00 | 43 | 1012.5 |
| 20260905183038 | 97 | 336 | 1.7 | 3.5 | 0.00 | 0.84 | 0.00 | 43 | 1012.6 |
| 20260905182020 | 97 | 153 | 1.7 | 3.5 | 0.00 | 0.84 | 0.00 | 44 | 1012.7 |
| 20260905181018 | 97 | 271 | 1.7 | 3.5 | 0.00 | 0.84 | 0.00 | 44 | 1012.8 |
| 20260905180019 | 97 | 92 | 0.9 | 2.6 | 0.00 | 0.84 | 0.00 | 45 | 1012.9 |
| 20260905175015 | 96 | 267 | 2.6 | 5.2 | 0.00 | 0.84 | 0.00 | 46 | 1013.0 |
| 20260905174016 | 97 | 334 | 1.7 | 4.3 | 0.00 | 0.84 | 0.00 | 45 | 1013.2 |
| 20260905173016 | 98 | 62 | 2.6 | 7.0 | 0.00 | 0.84 | 0.00 | 44 | 1013.1 |
| 20260905172037 | 97 | 216 | 2.6 | 4.3 | 0.00 | 0.84 | 0.00 | 45 | 1013.2 |
| 20260905171017 | 96 | 221 | 1.7 | 3.5 | 0.00 | 0.84 | 0.00 | 46 | 1013.4 |
| 20260905170016 | 97 | 303 | 2.6 | 6.1 | 0.00 | 0.84 | 0.00 | 44 | 1013.3 |
| 20260905165017 | 97 | 319 | 2.6 | 7.0 | 0.00 | 0.84 | 0.00 | 46 | 1013.4 |
| 20260905164016 | 97 | 135 | 0.9 | 2.6 | 0.00 | 0.84 | 0.00 | 46 | 1013.5 |
| 20260905163037 | 95 | 321 | 1.7 | 3.5 | 0.00 | 0.84 | 0.00 | 48 | 1013.6 |
| 20260905162017 | 96 | 277 | 1.7 | 4.3 | 0.00 | 0.84 | 0.00 | 47 | 1013.7 |
| 20260905161017 | 96 | 268 | 2.6 | 7.0 | 0.00 | 0.84 | 0.00 | 47 | 1013.7 |
| 20260905160018 | 95 | 210 | 1.7 | 3.5 | 0.00 | 0.84 | 0.00 | 49 | 1013.8 |
| 20260905155019 | 95 | 279 | 0.9 | 3.5 | 0.00 | 0.84 | 0.00 | 50 | 1013.8 |
| 20260905154017 | 94 | 337 | 1.7 | 3.5 | 0.00 | 0.84 | 0.00 | 52 | 1013.9 |
| 20260905153017 | 94 | 314 | 1.7 | 4.3 | 0.00 | 0.84 | 0.00 | 52 | 1014.0 |
| 20260905152017 | 93 | 238 | 2.6 | 3.5 | 0.00 | 0.84 | 0.00 | 54 | 1014.0 |
| 20260905151017 | 92 | 241 | 1.7 | 5.2 | 0.00 | 0.84 | 0.00 | 58 | 1014.0 |
| 20260905150016 | 91 | 153 | 0.9 | 2.6 | 0.00 | 0.84 | 0.00 | 64 | 1014.1 |
| 20260905145057 | 90 | 150 | 0.9 | 3.5 | 0.00 | 0.84 | 0.00 | 67 | 1014.1 |
| 20260905144038 | 90 | 107 | 0.9 | 2.6 | 0.00 | 0.84 | 0.00 | 67 | 1014.1 |
| 20260905143038 | 89 | 210 | 0.9 | 3.5 | 0.00 | 0.84 | 0.00 | 67 | 1014.1 |
| 20260905142017 | 89 | 210 | 0.9 | 1.7 | 0.00 | 0.84 | 0.00 | 67 | 1014.1 |
| 20260905141037 | 87 | 20 | 0.9 | 3.5 | 0.00 | 0.84 | 0.00 | 71 | 1014.1 |
| 20260905140018 | 86 | 51 | 0.0 | 0.9 | 0.00 | 0.84 | 0.00 | 74 | 1014.0 |
| 20260905135016 | 85 | 82 | 0.0 | 1.7 | 0.00 | 0.84 | 0.00 | 75 | 1014.0 |
| 20260905134016 | 84 | 107 | 0.0 | 1.7 | 0.00 | 0.84 | 0.00 | 77 | 1014.0 |
| 20260905133016 | 83 | 63 | 0.9 | 2.6 | 0.00 | 0.84 | 0.00 | 78 | 1014.0 |
| 20260905132056 | 83 | 129 | 0.0 | 0.9 | 0.00 | 0.84 | 0.00 | 78 | 1014.0 |
| 20260905131018 | 82 | 118 | 0.0 | 0.9 | 0.00 | 0.84 | 0.00 | 80 | 1013.9 |
| 20260905130016 | 81 | 91 | 0.0 | 1.7 | 0.00 | 0.84 | 0.00 | 80 | 1013.8 |
| 20260905125016 | 79 | 46 | 0.0 | 0.9 | 0.00 | 0.84 | 0.00 | 84 | 1013.8 |
| 20260905124059 | 79 | 82 | 0.0 | 0.9 | 0.00 | 0.84 | 0.00 | 86 | 1013.8 |
| 20260905123017 | 78 | 63 | 0.0 | 0.9 | 0.00 | 0.84 | 0.00 | 86 | 1013.8 |